Location: Dennehotso
(36.8461°N, 109.8435°W)
Time: 23:29:57
(UTC+00:00)

N. Korean satellite - Pass Details

Date: 01 March 2021
Orbit: 453 x 499 km, 97.2° (Epoch: 12 April)

Event Time Altitude Azimuth Distance (km) Brightness Sun altitude
Rises 12:38:14 0° 12° (NNE) 2,517 10.4 -15.1°
Reaches altitude 10° 12:40:17 10° 14° (NNE) 1,643 9.4 -14.7°
Maximum altitude 12:43:49 80° 100° (E) 490 6.6 -14.0°
Drops below altitude 10° 12:47:23 10° 189° (S) 1,658 9.2 -13.3°
Sets 12:49:27 0° 190° (S) 2,541 10.1 -12.8°
